| time (UTC) | temp C | wind direction | speed KPH | gust KPH | rain 1hr cm | rain 24hr cm | rain mn cm | humidity % | barometer mb |
| 20260504050008 | 11 | 215 | 1.6 | 3.2 | 0.00 | 0.28 | 0.00 | 96 | 1011.7 |
| 20260504043508 | 11 | 215 | 1.6 | 3.2 | 0.00 | 0.28 | 0.00 | 96 | 1011.4 |
| 20260504043008 | 11 | 215 | 1.6 | 4.8 | 0.00 | 0.28 | 0.00 | 96 | 1011.4 |
| 20260504042508 | 11 | 215 | 1.6 | 4.8 | 0.00 | 0.28 | 0.00 | 96 | 1011.4 |
| 20260504042008 | 11 | 215 | 4.8 | 8.0 | 0.00 | 0.28 | 0.00 | 96 | 1011.5 |
| 20260504041507 | 12 | 215 | 3.2 | 4.8 | 0.00 | 0.28 | 0.00 | 96 | 1011.4 |
| 20260504041008 | 12 | 215 | 3.2 | 4.8 | 0.00 | 0.28 | 0.00 | 96 | 1011.5 |
| 20260504040008 | 12 | 215 | 0.0 | 1.6 | 0.00 | 0.28 | 0.00 | 96 | 1011.5 |
| 20260504035508 | 12 | 215 | 1.6 | 3.2 | 0.00 | 0.28 | 0.00 | 96 | 1011.5 |
| 20260504035008 | 12 | 215 | 0.0 | 3.2 | 0.00 | 0.28 | 0.00 | 96 | 1011.5 |
| 20260504032007 | 11 | 215 | 0.0 | 0.0 | 0.00 | 0.28 | 0.00 | 96 | 1011.6 |
| 20260504031508 | 11 | 215 | 1.6 | 3.2 | 0.00 | 0.28 | 0.00 | 96 | 1011.7 |
| 20260504031008 | 11 | 215 | 0.0 | 3.2 | 0.00 | 0.28 | 0.00 | 96 | 1011.7 |
| 20260504025008 | 11 | 215 | 0.0 | 0.0 | 0.00 | 0.36 | 0.00 | 95 | 1011.7 |
| 20260504024507 | 11 | 215 | 0.0 | 0.0 | 0.00 | 0.38 | 0.00 | 95 | 1011.6 |
| 20260504024007 | 11 | 215 | 0.0 | 0.0 | 0.00 | 0.38 | 0.00 | 95 | 1011.6 |
| 20260504023507 | 11 | 215 | 0.0 | 0.0 | 0.00 | 0.41 | 0.00 | 95 | 1011.4 |
| 20260504023007 | 11 | 215 | 0.0 | 0.0 | 0.00 | 0.41 | 0.00 | 95 | 1011.3 |
| 20260504015507 | 12 | 215 | 0.0 | 0.0 | 0.00 | 0.41 | 0.00 | 95 | 1011.2 |
| 20260504015007 | 12 | 215 | 0.0 | 0.0 | 0.00 | 0.43 | 0.00 | 95 | 1011.2 |
| 20260504013507 | 12 | 215 | 0.0 | 0.0 | 0.00 | 0.46 | 0.00 | 95 | 1011.4 |
| 20260504013007 | 12 | 215 | 0.0 | 0.0 | 0.00 | 0.46 | 0.00 | 95 | 1011.4 |
| 20260504012507 | 12 | 215 | 0.0 | 0.0 | 0.00 | 0.46 | 0.00 | 95 | 1011.5 |
| 20260504012008 | 12 | 215 | 0.0 | 0.0 | 0.00 | 0.46 | 0.00 | 95 | 1011.5 |
| 20260504011507 | 12 | 215 | 0.0 | 0.0 | 0.00 | 0.46 | 0.00 | 94 | 1011.4 |
| 20260504011007 | 12 | 215 | 0.0 | 0.0 | 0.00 | 0.46 | 0.00 | 94 | 1011.5 |
| 20260504010007 | 12 | 215 | 0.0 | 0.0 | 0.00 | 0.46 | 0.00 | 94 | 1011.4 |
| 20260504003007 | 12 | 215 | 0.0 | 0.0 | 0.00 | 0.46 | 0.00 | 94 | 1011.4 |
| 20260504002507 | 12 | 215 | 0.0 | 0.0 | 0.00 | 0.46 | 0.00 | 94 | 1011.4 |
| 20260504002007 | 12 | 215 | 0.0 | 0.0 | 0.00 | 0.46 | 0.00 | 94 | 1011.4 |
| 20260504001507 | 12 | 215 | 0.0 | 1.6 | 0.00 | 0.46 | 0.00 | 94 | 1011.4 |
| 20260504001007 | 12 | 215 | 3.2 | 4.8 | 0.00 | 0.46 | 0.00 | 94 | 1011.4 |
| 20260504000007 | 13 | 215 | 3.2 | 4.8 | 0.00 | 0.46 | 0.00 | 94 | 1011.6 |
| 20260503235507 | 13 | 215 | 0.0 | 3.2 | 0.00 | 0.46 | 0.00 | 94 | 1011.6 |
| 20260503234506 | 13 | 215 | 0.0 | 3.2 | 0.00 | 0.46 | 0.00 | 94 | 1011.6 |
| 20260503234006 | 13 | 215 | 3.2 | 4.8 | 0.00 | 0.46 | 0.00 | 94 | 1011.6 |
| 20260503233507 | 13 | 215 | 1.6 | 4.8 | 0.00 | 0.48 | 0.00 | 94 | 1011.5 |
| 20260503233007 | 13 | 215 | 1.6 | 4.8 | 0.00 | 0.48 | 0.00 | 94 | 1011.6 |
| 20260503232506 | 13 | 215 | 1.6 | 4.8 | 0.00 | 0.51 | 0.00 | 94 | 1011.7 |
| 20260503232006 | 13 | 215 | 3.2 | 4.8 | 0.00 | 0.51 | 0.00 | 94 | 1011.7 |
| 20260503231507 | 13 | 215 | 3.2 | 4.8 | 0.00 | 0.51 | 0.00 | 94 | 1011.7 |
| 20260503225007 | 13 | 215 | 1.6 | 4.8 | 0.00 | 0.51 | 0.00 | 93 | 1011.6 |
| 20260503222506 | 13 | 215 | 4.8 | 8.0 | 0.00 | 0.51 | 0.00 | 93 | 1011.6 |
| 20260503222007 | 13 | 215 | 3.2 | 4.8 | 0.00 | 0.51 | 0.00 | 93 | 1011.6 |
| 20260503220006 | 13 | 215 | 3.2 | 4.8 | 0.00 | 0.51 | 0.00 | 93 | 1011.3 |
| 20260503215506 | 13 | 215 | 3.2 | 8.0 | 0.00 | 0.51 | 0.51 | 93 | 1011.3 |
| 20260503215007 | 13 | 215 | 3.2 | 8.0 | 0.00 | 0.51 | 0.51 | 93 | 1011.3 |
| 20260503213006 | 13 | 215 | 3.2 | 8.0 | 0.00 | 0.61 | 0.51 | 93 | 1011.4 |
| 20260503212506 | 13 | 215 | 3.2 | 8.0 | 0.00 | 0.64 | 0.51 | 92 | 1011.4 |
| 20260503212007 | 13 | 215 | 3.2 | 4.8 | 0.00 | 0.66 | 0.51 | 92 | 1011.4 |
| 20260503211506 | 13 | 215 | 1.6 | 4.8 | 0.00 | 0.71 | 0.51 | 92 | 1011.3 |
| 20260503211007 | 13 | 215 | 1.6 | 12.9 | 0.00 | 0.74 | 0.51 | 92 | 1011.2 |
| 20260503210006 | 13 | 215 | 3.2 | 9.7 | 0.00 | 1.22 | 0.51 | 92 | 1011.3 |
| 20260503204506 | 14 | 215 | 3.2 | 8.0 | 0.00 | 1.45 | 0.51 | 91 | 1011.3 |
| 20260503204006 | 14 | 215 | 4.8 | 12.9 | 0.00 | 1.45 | 0.51 | 91 | 1011.4 |
| 20260503202506 | 14 | 236 | 4.8 | 12.9 | 0.00 | 1.45 | 0.51 | 90 | 1011.2 |
| 20260503202007 | 14 | 236 | 4.8 | 11.3 | 0.00 | 1.45 | 0.51 | 90 | 1011.2 |
| 20260503201506 | 14 | 236 | 4.8 | 9.7 | 0.00 | 1.45 | 0.51 | 90 | 1011.2 |
| 20260503201006 | 14 | 236 | 6.4 | 11.3 | 0.00 | 1.45 | 0.51 | 90 | 1011.1 |
| 20260503200006 | 14 | 236 | 4.8 | 8.0 | 0.00 | 1.45 | 0.51 | 90 | 1011.1 |
| 20260503195506 | 15 | 236 | 3.2 | 9.7 | 0.00 | 1.45 | 0.51 | 91 | 1011.0 |
| 20260503195006 | 15 | 236 | 1.6 | 4.8 | 0.00 | 1.45 | 0.51 | 90 | 1010.8 |
| 20260503194506 | 15 | 236 | 3.2 | 8.0 | 0.00 | 1.45 | 0.51 | 90 | 1010.8 |
| 20260503194006 | 15 | 236 | 3.2 | 8.0 | 0.00 | 1.45 | 0.51 | 89 | 1010.7 |
| 20260503193506 | 15 | 236 | 3.2 | 8.0 | 0.00 | 1.45 | 0.51 | 89 | 1010.6 |
| 20260503192006 | 15 | 236 | 3.2 | 8.0 | 0.00 | 1.45 | 0.51 | 88 | 1010.6 |
| 20260503191506 | 15 | 236 | 4.8 | 9.7 | 0.00 | 1.45 | 0.51 | 88 | 1010.5 |
| 20260503191006 | 15 | 236 | 3.2 | 11.3 | 0.00 | 1.45 | 0.51 | 88 | 1010.3 |
| 20260503190006 | 15 | 236 | 6.4 | 11.3 | 0.00 | 1.45 | 0.51 | 88 | 1010.3 |
| 20260503185505 | 15 | 236 | 4.8 | 8.0 | 0.00 | 1.45 | 0.51 | 89 | 1010.4 |
| 20260503184506 | 15 | 236 | 8.0 | 12.9 | 0.00 | 1.45 | 0.51 | 89 | 1010.3 |
| 20260503183506 | 15 | 236 | 3.2 | 4.8 | 0.00 | 1.45 | 0.51 | 89 | 1010.1 |
| 20260503182006 | 15 | 236 | 3.2 | 4.8 | 0.00 | 1.45 | 0.51 | 88 | 1010.1 |
| 20260503180006 | 15 | 236 | 3.2 | 11.3 | 0.00 | 1.45 | 0.51 | 86 | 1009.9 |
| 20260503175505 | 15 | 236 | 3.2 | 9.7 | 0.00 | 1.45 | 0.51 | 86 | 1010.0 |
| 20260503175006 | 15 | 236 | 3.2 | 14.5 | 0.00 | 1.45 | 0.51 | 86 | 1009.9 |
| 20260503174506 | 15 | 236 | 4.8 | 12.9 | 0.00 | 1.45 | 0.51 | 86 | 1009.9 |
| 20260503174005 | 16 | 236 | 4.8 | 12.9 | 0.00 | 1.45 | 0.51 | 87 | 1009.9 |
| 20260503173506 | 16 | 239 | 3.2 | 11.3 | 0.00 | 1.45 | 0.51 | 87 | 1009.7 |
| 20260503173006 | 16 | 259 | 1.6 | 8.0 | 0.00 | 1.45 | 0.51 | 87 | 1009.6 |
| 20260503172505 | 16 | 263 | 8.0 | 12.9 | 0.00 | 1.45 | 0.51 | 86 | 1009.6 |
| 20260503171505 | 16 | 243 | 4.8 | 11.3 | 0.00 | 1.45 | 0.51 | 85 | 1009.6 |
| 20260503171006 | 16 | 223 | 4.8 | 14.5 | 0.00 | 1.45 | 0.51 | 85 | 1009.7 |
| 20260503131005 | 15 | 244 | 3.2 | 9.7 | 0.00 | 1.45 | 0.51 | 89 | 1010.5 |
| 20260503081508 | 15 | 208 | 6.4 | 12.9 | 0.00 | 1.22 | 0.25 | 92 | 1010.2 |
| 20260503081009 | 15 | 213 | 6.4 | 11.3 | 0.00 | 1.22 | 0.25 | 92 | 1010.2 |
| 20260503071508 | 15 | 114 | 4.8 | 4.8 | 0.00 | 1.22 | 0.25 | 95 | 1010.1 |
| 20260503071008 | 15 | 114 | 4.8 | 11.3 | 0.00 | 1.22 | 0.25 | 95 | 1010.0 |
| 20260503052507 | 13 | 111 | 4.8 | 11.3 | 0.00 | 1.24 | 0.23 | 95 | 1010.1 |
| 20260503052008 | 13 | 111 | 3.2 | 11.3 | 0.00 | 1.24 | 0.23 | 95 | 1010.2 |
| 20260503051508 | 13 | 111 | 3.2 | 12.9 | 0.00 | 1.24 | 0.23 | 95 | 1010.1 |
| 20260503051007 | 13 | 111 | 3.2 | 12.9 | 0.00 | 1.24 | 0.23 | 95 | 1010.2 |